Location: Middle Street
(51.7167°N, 0.0333°E)
Time: 00:58:15
(UTC+00:00)

GENESIS II - Pass Details

Date: 20 January 2021
Orbit: 496 x 529 km, 64.5° (Epoch: 28 February)

Event Time Altitude Azimuth Distance (km) Brightness Sun altitude
Rises 17:29:49 0° 211° (SSW) 2,660 8.7 -9.4°
Reaches altitude 10° 17:32:01 10° 207° (SSW) 1,775 7.7 -9.7°
Maximum altitude 17:35:57 60° 128° (SE) 609 4.4 -10.3°
Enters shadow 17:39:18 14° 50° (NE) 1,551 6.0 -10.8°
